User: anonymous   Login
Location: Sabalos
(43.2860°N, 0.1414°E)
Time: 02:21:38
(UTC+00:00)
Language:

Spot 4 - Orbit

View from above orbital plane
View from above orbital plane
View from above satellite
View from above satellite

Ground track
Ground track

The orbit data is extracted from the following two-line orbital elements,

1 25260U 98017A   20272.82198401  .00000046  00000-0  21843-4 0  9998
2 25260  98.2918   1.4563 0013100 177.9982 182.1269 14.53635540176112
Epoch (UTC): 28 September 2020 19:43:39
Eccentricity: 0.0013100
inclination: 98.2918°
perigee height: 704 km
apogee height: 723 km
right ascension of ascending node: 1.4563°
argument of perigee: 177.9982°
revolutions per day: 14.53635540
mean anomaly at epoch: 182.1269°
orbit number at epoch: 17611

The dashed part of the orbit path shows where the satellite is in the earth's shadow,  

DLR